Location: Arbon
(43.0005°N, 0.7472°E)
Time: 11:46:47
(UTC+00:00)

Cosmos 2263 - Pass Details

Date: 22 April 2026
Orbit: 830 x 863 km, 70.9° (Epoch: 14 May)

Event Time Altitude Azimuth Distance (km) Brightness Sun altitude
Rises 20:35:08 0° 338° (NNW) 3,396 8.4 -18.2°
Reaches altitude 10° 20:37:39 10° 344° (NNW) 2,462 7.4 -18.5°
Maximum altitude 20:43:10 53° 61° (ENE) 1,033 4.5 -19.3°
Enters shadow 20:45:11 36° 116° (ESE) 1,321 4.7 -19.6°
